Hourly Data Report for September 16, 2019

QUALICUM BEACH AIRPORT
BRITISH COLUMBIA
Current Station Operator: ECCC - MSC

49°20'14.000" N
124°23'38.000" W
58.20 m
1026562
71766
VOQ

Download Data

Hourly Data (September 2019)
Hourly Data Report for September 16, 2019
TIME
LST
Temp Definition
°C
Dew Point Definition
°C
Rel Hum Definition
%
Precip. Amount Definition
mm

Wind Dir Definition
10's deg

Wind Spd Definition
km/h
Visibility Definition
km
Stn Press Definition
kPa
Hmdx Definition


Wind Chill Definition


Weather Definition


00:00 12.2 11.6 96 0.0 26 5   100.12     LegendNANA
01:00 12.4 11.4 94 0.0 27 3   100.15     LegendNANA
02:00 11.0 10.3 95 0.0 22 3   100.14     LegendNANA
03:00 11.0 10.3 96 0.0   0   100.16     LegendNANA
04:00 11.0 10.3 95 0.0 19 2   100.17     LegendNANA
05:00 11.0 10.2 95 0.0   0   100.19     LegendNANA
06:00 11.2 10.4 95 0.0 28 1   100.21     LegendNANA
07:00 11.9 11.1 95 0.0 32 3   100.26     LegendNANA
08:00 12.3 11.2 93 0.0 23 2   100.31     LegendNANA
09:00 12.9 11.4 91 0.0 26 1   100.30     LegendNANA
10:00 13.9 12.0 89 0.1 7 4   100.28     LegendNANA
11:00 14.2 11.4 83 0.0 10 9   100.25     LegendNANA
12:00 14.7 11.4 81 0.0 9 7   100.22     LegendNANA
13:00 14.9 11.7 81 0.0 8 8   100.19     LegendNANA
14:00 14.6 11.9 84 0.0 9 7   100.19     LegendNANA
15:00 15.0 12.7 86 0.0 10 5   100.16     LegendNANA
16:00 14.7 12.9 89 0.1 11 6   100.15     LegendNANA
17:00 14.1 12.7 92 0.0 11 9   100.14     LegendNANA
18:00 13.8 12.5 92 0.0 15 5   100.12     LegendNANA
19:00 13.1 12.1 94 0.0 16 1   100.11     LegendNANA
20:00 13.4 11.1 86 0.0 15 10   100.07     LegendNANA
21:00 13.4 9.9 79 0.0 14 8   100.07     LegendNANA
22:00 12.9 10.2 84 0.0 13 11   100.02     LegendNANA
23:00 13.2 9.5 79 0.0 13 12   99.97     LegendNANA

Notes on Data Quality.

Legend

  • E = Estimated
  • M = Missing
  • NA = Not Available*
  • [empty] = Indicates an unobserved value
Date modified: